www.pogodaiklimat.ru

Погода и климат >> Архив погоды >> Италия >> Казерта


ПОГОДА в Казерте

  • Прогноз погоды в Казерте
  • Монитор погоды в Казерте

АРХИВ ПОГОДЫ в Казерте

Время (UTC), дата Ветер
(напр.,м/с)
 
Видим.   Явления Облачность Т
(С)
Тd
(С)
f
(%)
Тe
(С)
Тes
(С)
Комфортность P
(гПа)
Po
(гПа)
Тmin
(С)
Tmax
(С)
R
(мм)
R24
(мм)
S
(см)
19 19.03 В 3 н/о н/о +12.7 +5.8 63 +12 +12 1019.4 1011.2
20 19.03 В 2 н/о н/о +12.0 +5.3 64 +12 +12 1020.2 1011.9
21 19.03 В 3 н/о н/о +11.5 +4.9 64 +10 +10 1020.2 1011.9
22 19.03 В 4 н/о н/о +11.2 +4.6 64 +9 +9 1020.6 1012.3
23 19.03 Ю 3 н/о н/о +11.4 +4.5 63 +10 +10 1020.7 1012.4
00 20.03 З 4 н/о н/о +11.4 +4.3 62 +10 +10 1020.9 1012.6
01 20.03 В 4 н/о н/о +11.2 +4.3 62 +9 +9 1021.1 1012.8
02 20.03 В 3 н/о н/о +11.1 +4.0 62 +9 +9 1021.0 1012.7
03 20.03 В 4 н/о н/о +11.4 +3.8 60 +10 +10 1020.8 1012.5
04 20.03 В 3 н/о н/о +11.0 +3.5 60 +10 +10 1020.7 1012.4
05 20.03 СВ 3 н/о н/о +10.8 +3.7 61 +9 +9 1021.1 1012.8
06 20.03 В 4 н/о н/о +10.9 +3.6 61 +9 +9 1021.7 1013.4 +10.7 1
07 20.03 В 4 н/о н/о +10.7 +4.1 64 +9 +9 1022.3 1014.0
08 20.03 В 3 н/о н/о +10.8 +4.2 64 +9 +9 1022.9 1014.6
09 20.03 В 2 н/о н/о +10.5 +5.2 70 +9 +9 1023.5 1015.2
10 20.03 В 4 н/о н/о +11.5 +5.1 65 +10 +10 1023.9 1015.6
11 20.03 ЮВ 3 н/о н/о +11.7 +4.6 62 +10 +10 1024.2 1015.9
12 20.03 ЮВ 3 н/о н/о +12.1 +4.7 61 +11 +11 1024.0 1015.7
13 20.03 В 3 н/о н/о +13.7 +4.7 55 +13 +13 1023.4 1015.2
14 20.03 ЮЗ 4 н/о н/о +13.4 +3.1 50 +12 +12 1023.0 1014.8
15 20.03 В 4 н/о н/о +13.8 +3.5 50 +13 +13 1022.9 1014.7
16 20.03 В 4 н/о н/о +12.7 +3.0 52 +11 +11 1022.8 1014.5
17 20.03 В 4 н/о н/о +12.0 +2.4 52 +10 +10 1023.2 1014.9
18 20.03 В 4 н/о н/о +11.4 +2.1 53 +10 +10 1023.6 1015.3 +14.1
19 20.03 В 3 н/о н/о +11.3 +1.4 51 +10 +10 1024.3 1016.0
20 20.03 СВ 3 н/о н/о +11.3 +0.9 49 +10 +10 1024.6 1016.3
21 20.03 В 3 н/о н/о +11.2 +1.1 50 +10 +10 1024.8 1016.5
22 20.03 В 3 н/о н/о +10.9 -0.1 47 +9 +9 1024.7 1016.4
23 20.03 В 3 н/о н/о +10.9 -1.0 44 +9 +9 1024.8 1016.5
00 21.03 СЗ 4 н/о н/о +10.9 -1.3 43 +9 +9 1024.9 1016.6
01 21.03 В 3 н/о н/о +10.9 -0.4 46 +9 +9 1024.8 1016.5
02 21.03 СВ 3 н/о н/о +10.8 -0.5 46 +9 +9 1024.5 1016.2
03 21.03 В 5 н/о н/о +10.7 -0.6 45 +8 +8 1024.3 1016.0
04 21.03 В 4 н/о н/о +10.6 -0.4 46 +9 +9 1024.2 1015.9
05 21.03 В 5 н/о н/о +10.5 -0.4 47 +8 +8 1024.3 1016.0
06 21.03 В 4 н/о н/о +10.2 +0.1 49 +8 +8 1024.9 1016.5 +10.1 1
07 21.03 В 4 н/о н/о +11.5 +1.1 49 +10 +10 1025.4 1017.1
08 21.03 В 4 н/о н/о +12.9 +1.8 47 +11 +11 1025.6 1017.3
09 21.03 В 4 н/о н/о +14.2 +3.0 47 +13 +13 1025.7 1017.5
10 21.03 В 4 н/о н/о +16.1 +4.7 47 +16 +16 1026.0 1017.8
11 21.03 В 4 н/о н/о +17.6 +5.1 44 +17 +17 1025.5 1017.4
12 21.03 В 3 н/о н/о +18.8 +5.9 43 +19 +19 1024.9 1016.8
13 21.03 ЮЗ 3 н/о н/о +19.2 +5.2 40 +20 +20 1024.4 1016.3
14 21.03 В 3 н/о н/о +19.4 +5.0 39 +20 +20 1024.2 1016.1
15 21.03 В 3 н/о н/о +18.8 +4.8 40 +19 +19 1024.0 1015.9
17 21.03 В 2 н/о н/о +16.4 +4.0 44 +17 +17 1025.1 1016.9
18 21.03 В 3 н/о н/о +15.5 +2.5 42 +15 +15 1025.4 1017.2 +19.7
19 21.03 Ю 2 н/о н/о +13.9 +2.1 45 +14 +14 1026.1 1017.8
20 21.03 ЮЗ 3 н/о н/о +12.7 +1.9 48 +12 +12 1026.4 1018.1
21 21.03 ЮЗ 2 н/о н/о +12.3 +1.8 49 +12 +12 1026.9 1018.6
22 21.03 ЮВ 2 н/о н/о +12.9 +1.8 47 +12 +12 1027.0 1018.7
23 21.03 С 2 н/о н/о +12.9 +1.1 44 +12 +12 1026.8 1018.5
00 22.03 Ю 3 н/о н/о +11.4 +0.4 47 +10 +10 1027.0 1018.7
01 22.03 ЮВ 3 н/о н/о +11.9 +0.5 45 +11 +11 1027.1 1018.8
02 22.03 В 3 н/о н/о +11.6 +0.3 46 +10 +10 1026.3 1018.0
03 22.03 В 2 н/о н/о +11.7 +0.4 46 +11 +11 1026.4 1018.1
04 22.03 В 2 н/о н/о +11.5 +0.5 47 +11 +11 1026.3 1018.0
05 22.03 С 2 н/о н/о +11.7 +0.7 47 +11 +11 1026.1 1017.8
06 22.03 З 2 н/о н/о +12.2 +0.8 46 +12 +12 1026.5 1018.2 +11.2 403
07 22.03 В 2 н/о н/о +13.7 +1.6 44 +13 +13 1026.8 1018.5
08 22.03 С 1 н/о н/о +15.2 +1.6 40 +16 +16 1027.0 1018.8
09 22.03 С 3 н/о н/о +16.2 +2.5 40 +16 +16 1026.8 1018.6
10 22.03 В 3 н/о н/о +17.6 +3.4 39 +18 +18 1026.7 1018.5
11 22.03 С 3 н/о н/о +19.3 +4.2 37 +20 +20 1026.1 1018.0
12 22.03 В 4 н/о н/о +20.1 +4.5 36 +21 +21 комфорт 1025.6 1017.5
13 22.03 В 4 н/о н/о +20.8 +5.1 36 +22 +22 комфорт 1024.8 1016.7
14 22.03 В 4 н/о н/о +21.0 +4.5 34 +22 +22 комфорт 1024.2 1016.2
15 22.03 В 3 н/о н/о +20.5 +4.8 36 +22 +22 комфорт 1024.0 1015.9
16 22.03 В 2 н/о н/о +19.6 +4.4 37 +21 +21 комфорт 1023.8 1015.7
17 22.03 В 3 н/о н/о +18.4 +3.4 37 +19 +19 1024.0 1015.9
18 22.03 С 3 н/о н/о +17.1 +2.9 39 +17 +17 1024.4 1016.2 +21.6
19 22.03 ЮВ 2 н/о н/о +16.3 +2.6 40 +17 +17 1024.8 1016.6
20 22.03 З 1 н/о н/о +15.1 +1.8 41 +16 +16 1025.0 1016.8
21 22.03 ЮВ 1 н/о н/о +14.4 +1.9 43 +15 +15 1024.9 1016.7
22 22.03 С 1 н/о н/о +13.3 +1.8 46 +14 +14 1024.7 1016.4
23 22.03 СВ 1 н/о н/о +12.1 +1.0 47 +13 +13 1024.3 1016.0
00 23.03 С 1 н/о н/о +10.8 +1.2 51 +11 +11 1024.2 1015.9
01 23.03 СВ 2 н/о н/о +11.1 +0.7 49 +11 +11 1023.9 1015.6
02 23.03 С 1 н/о н/о +10.4 +0.9 52 +10 +10 1023.4 1015.1
03 23.03 СВ 1 н/о н/о +10.0 +0.8 53 +10 +10 1023.3 1015.0
04 23.03 СВ 1 н/о н/о +9.7 +1.0 55 +11 +11 1023.5 1015.1
05 23.03 СВ 2 н/о н/о +9.3 +0.6 55 +8 +8 1023.5 1015.1
06 23.03 СВ 2 н/о н/о +10.4 +1.9 56 +9 +9 1023.6 1015.3 +9.0 504
07 23.03 СВ 2 н/о н/о +14.3 +3.0 47 +14 +14 1023.7 1015.5
08 23.03 СВ 2 н/о н/о +16.5 +2.4 39 +17 +17 1023.5 1015.3
09 23.03 З 1 н/о н/о +16.8 +1.9 37 +18 +18 1023.6 1015.4
10 23.03 В 1 н/о н/о +18.7 +2.8 35 +20 +20 1023.2 1015.1
11 23.03 Ю 1 н/о н/о +21.2 +3.8 32 +21 +21 комфорт 1022.4 1014.4
12 23.03 В 2 н/о н/о +22.4 +2.9 28 +22 +22 комфорт 1021.9 1013.9
13 23.03 ЮВ 3 н/о н/о +22.7 +3.2 28 +23 +23 комфорт 1021.1 1013.1
14 23.03 В 3 н/о н/о +22.9 +1.2 24 +22 +22 комфорт 1020.7 1012.7
15 23.03 В 4 н/о н/о +22.6 +1.5 25 +22 +22 комфорт 1020.6 1012.6
16 23.03 В 3 н/о н/о +21.9 +0.4 24 +21 +21 комфорт 1020.8 1012.8
17 23.03 ЮВ 2 н/о н/о +20.5 +0.3 26 +21 +21 комфорт 1020.9 1012.9
18 23.03 Ю 1 н/о н/о +18.8 +0.3 29 +20 +20 1021.3 1013.2 +23.0
19 23.03 СЗ 2 н/о н/о +15.7 +5.2 50 +16 +16 1022.1 1013.9
20 23.03 С 1 н/о н/о +13.8 +6.1 60 +14 +14 1022.5 1014.3
21 23.03 СВ 1 н/о н/о +12.4 +2.7 52 +13 +13 1022.7 1014.4
22 23.03 В 2 н/о н/о +13.0 +1.8 46 +13 +13 1022.5 1014.3
23 23.03 В 2 н/о н/о +13.1 -0.3 40 +13 +13 1022.8 1014.6
00 24.03 СВ 1 н/о н/о +12.8 +0.1 42 +13 +13 1023.0 1014.7
01 24.03 СВ 2 н/о н/о +11.8 -0.5 43 +11 +11 1022.9 1014.6
02 24.03 СВ 2 н/о н/о +11.9 -0.1 44 +12 +12 1022.6 1014.3
03 24.03 СВ 2 н/о н/о +12.1 -0.5 42 +12 +12 1022.5 1014.2
04 24.03 СВ 3 н/о н/о +11.6 -1.0 42 +11 +11 1022.4 1014.1
05 24.03 С 3 н/о н/о +11.5 -1.1 42 +10 +10 1022.6 1014.3
06 24.03 СВ 3 н/о н/о +11.8 -0.5 43 +11 +11 1022.8 1014.5 +11.3 404
07 24.03 СВ 2 н/о н/о +13.9 +0.8 41 +14 +14 1023.1 1014.9
08 24.03 СВ 2 н/о н/о +16.4 +1.9 38 +17 +17 1023.3 1015.1
09 24.03 С 2 н/о н/о +18.3 +2.9 36 +19 +19 1023.4 1015.3
10 24.03 З 1 н/о н/о +21.0 +3.6 32 +23 +23 комфорт 1023.1 1015.1
11 24.03 СЗ 2 н/о н/о +21.7 +2.8 29 +22 +22 комфорт 1022.7 1014.7
12 24.03 ЮЗ 2 н/о н/о +22.8 +2.8 27 +22 +22 комфорт 1022.3 1014.3
13 24.03 З 3 н/о н/о +22.4 +5.3 33 +23 +23 комфорт 1021.7 1013.7
14 24.03 З 3 н/о н/о +21.7 +4.2 32 +22 +22 комфорт 1021.1 1013.1
15 24.03 СЗ 3 н/о н/о +20.7 +3.8 33 +22 +22 комфорт 1021.0 1013.0
16 24.03 СЗ 2 н/о н/о +19.5 +3.1 34 +20 +20 1021.2 1013.1
17 24.03 З 2 н/о н/о +17.9 +2.9 37 +19 +19 1021.1 1013.0
18 24.03 З 1 н/о н/о +16.3 +3.3 42 +18 +18 1021.1 1013.0 +23.7
19 24.03 СЗ 1 н/о н/о +14.0 +2.8 47 +15 +15 1021.5 1013.3
20 24.03 штиль 0 н/о н/о +12.2 +3.1 54 +12 +12 1021.8 1013.5
21 24.03 штиль 0 н/о н/о +11.1 +4.0 62 +11 +11 1021.7 1013.4
22 24.03 штиль 0 н/о н/о +10.3 +4.4 67 +10 +10 1021.6 1013.3
23 24.03 штиль 0 н/о н/о +9.7 +4.4 70 +9 +9 1021.2 1012.9
00 25.03 штиль 0 н/о н/о +9.3 +5.4 77 +9 +9 1021.1 1012.8
01 25.03 штиль 0 н/о н/о +8.8 +5.3 79 +8 +8 1021.0 1012.6
02 25.03 штиль 0 н/о н/о +9.0 +6.9 87 +8 +8 1020.7 1012.3
03 25.03 штиль 0 н/о н/о +9.4 +7.3 87 +9 +9 1020.1 1011.8
04 25.03 штиль 0 н/о н/о +9.1 +7.0 87 +8 +8 1019.8 1011.5
05 25.03 штиль 0 н/о н/о +9.4 +7.7 89 +9 +9 1019.5 1011.2
06 25.03 штиль 0 н/о н/о +9.7 +8.3 91 +9 +9 1019.6 1011.3 +8.6 0
07 25.03 Ю 1 н/о н/о +11.6 +9.1 85 +12 +12 1019.4 1011.1
08 25.03 З 1 н/о н/о +14.2 +10.6 79 +15 +15 1019.0 1010.8
09 25.03 З 2 н/о н/о +15.1 +9.4 69 +15 +15 1018.8 1010.6
10 25.03 ЮЗ 2 н/о н/о +16.5 +9.8 65 +17 +17 1018.1 1010.0
11 25.03 З 2 н/о н/о +18.2 +8.7 54 +19 +19 1017.3 1009.2
12 25.03 З 3 н/о н/о +19.2 +8.8 51 +20 +20 1016.7 1008.7
13 25.03 З 4 н/о н/о +18.4 +8.0 51 +19 +19 1015.9 1007.9
14 25.03 З 3 н/о н/о +18.5 +7.5 49 +19 +19 1015.2 1007.2
15 25.03 С 3 н/о н/о +18.2 +7.2 49 +18 +18 1014.8 1006.7
16 25.03 З 3 н/о н/о +17.2 +4.4 43 +17 +17 1014.1 1006.0
17 25.03 З 3 н/о н/о +15.8 +5.0 49 +16 +16 1013.8 1005.7
18 25.03 СЗ 1 н/о н/о +14.0 +3.9 51 +15 +15 1013.6 1005.4 +20.1
19 25.03 Ю 1 н/о н/о +13.4 +8.2 71 +14 +14 1013.5 1005.3
20 25.03 штиль 0 н/о н/о +11.6 +7.7 77 +11 +11 1013.4 1005.2
21 25.03 штиль 0 н/о н/о +11.0 +8.0 82 +10 +10 1013.1 1004.9
22 25.03 штиль 0 н/о н/о +10.2 +7.8 85 +10 +10 1012.9 1004.6
23 25.03 штиль 0 н/о н/о +9.8 +7.9 88 +9 +9 1012.5 1004.2
00 26.03 штиль 0 н/о н/о +9.4 +7.5 88 +9 +9 1012.3 1004.0
01 26.03 штиль 0 н/о н/о +9.1 +7.4 89 +8 +8 1012.0 1003.7
02 26.03 СВ 1 н/о н/о +9.2 +8.0 92 +8 +8 1011.6 1003.3
03 26.03 СВ 1 н/о н/о +9.5 +8.4 93 +10 +10 1011.3 1003.0
04 26.03 СВ 1 н/о н/о +9.9 +8.6 92 +9 +9 1011.3 1003.1
05 26.03 СВ 1 н/о н/о +10.2 +7.9 86 +10 +10 1010.9 1002.7
06 26.03 СВ 1 н/о н/о +9.6 +7.5 87 +9 +9 1011.2 1002.9 +8.7 402
07 26.03 Ю 1 н/о н/о +11.4 +9.3 87 +12 +12 1011.6 1003.4
08 26.03 штиль 0 н/о н/о +12.1 +8.7 80 +12 +12 1011.9 1003.7
09 26.03 В 4 н/о н/о +14.3 +6.6 60 +13 +13 1012.2 1004.1
10 26.03 В 4 н/о н/о +16.4 +6.7 53 +16 +16 1012.3 1004.2
11 26.03 В 4 н/о н/о +15.8 +5.0 49 +15 +15 1013.0 1004.9
12 26.03 В 4 н/о н/о +16.6 +5.5 48 +16 +16 1013.1 1005.0
13 26.03 С 4 н/о н/о +16.4 +5.6 49 +16 +16 1013.0 1004.9
14 26.03 В 5 н/о н/о +16.0 +5.2 49 +15 +15 1013.0 1004.9
15 26.03 В 5 н/о н/о +14.4 +4.9 53 +13 +13 1013.3 1005.2
16 26.03 В 4 н/о н/о +13.0 +4.1 55 +11 +11 1013.9 1005.7
17 26.03 В 4 н/о н/о +12.4 +4.0 57 +11 +11 1014.2 1006.0
18 26.03 В 5 н/о н/о +11.4 +3.3 57 +9 +9 1014.5 1006.3 +16.9

 

Местоположение метеостанции Казерта (Италия): широта 41.07 долгота 14.32 высота над уровнем моря 61 м.

В архиве по умолчанию представлена погода в Казерте за последнюю неделю. Архивные данные за месяц целиком и за предыдущие месяцы, начиная с января 2011 года, Вы можете получить, выбрав интересующий диапазон дат из раскрывающегося списка и нажав кнопку "Ввод!".


*Определитесь, кто Вы:
робот инопланетянин человек

Внимание! Время в таблицах - всемирное. Для получения местного времени необходимо прибавить поправку, которая равна 1 ч.

Смотрите также архив погоды в соседних городах и на ближайших метеорологических станциях:

Погода в Граццанизе (Италия) (21 км)
Погода в Неаполе (Италия) (25 км)
Погода на Капри (Италия) (59 км)
Погода в Кампобассо (Италия) (62 км)
Погода в Тревико (Италия) (76 км)
Погода в Торре-Олеволе (Италия) (102 км)
Погода во Фрозиноне (Италия) (106 км)
Погода на Понце (Италия) (116 км)
Погода в Фучино (Италия) (117 км)
Погода в Термоли (Италия) (118 км)

Пояснения к столбцам:

Ветер - указаны скорость ветра в м/с - средняя за 10 мин, порывы в срок и между сроками (в фигурных скобках) и направление, откуда дует ветер: С - северный, СВ - северо-восточный, В - восточный, ЮВ - юго-восточный, Ю - южный, ЮЗ - юго-западный, З - западный, СЗ - северо-западный.
Видимость - горизонтальная дальность видимости в метрах или километрах. При видимости от 1 до 10 км при отсутствии осадков обычно наблюдается дымка, при ухудшении видимости до 1 км и менее - туман. В сухую погоду видимость может ухудшаться дымом, пылью или мглою.
Явления - указаны атмосферные явления, наблюдавшиеся в срок или в последний час перед сроком; фигурными скобками обозначены явления, наблюдавшиеся между сроками (за 1-3 часа до срока); квадратными скобками обозначены град или гололедные отложения с указанием их диаметра в мм.
Облачность - указаны через наклонную черту общая и нижняя облачность в баллах и высота нижней границы облаков в метрах; квадратными скобками обозначены формы облаков: Ci - перистые, Cs - перисто-слоистые, Cc - перисто-кучевые, Ac - высококучевые, As - высокослоистые, Sc - слоисто-кучевые, Ns - слоисто-дождевые, Cu - кучевые, Cb - кучево-дождевые. Подробнее классификацию облаков см. в Атласе облаков (PDF).
T - Температура воздуха - температура, измеренная на высоте 2 м над землей.
Td - Температура точки росы - температура, при понижении до которой содержащийся в воздухе водяной пар достигнет насыщения.
f - Относительная влажность воздуха - влажноcть воздуха, измеренная на высоте 2 м над землей.
Te - Эффективная температура - температура, которую ощущает одетый по сезону человек в тени. Характеристика душности погоды. При расчете учитывается влияние влажности воздуха и скорости ветра на теплоощущения человека.
Tes - Эффективная температура на солнце - температура, которую ощущает человек, с поправкой на солнечный нагрев. Характеристика знойности погоды. Зависит от высоты солнца над горизонтом, облачности и скорости ветра. Ночью, в пасмурную погоду, а также при ветре 12 м/с и более поправка равна нулю.
P - Атмосферное давление - приведенное к уровню моря атмосферное давление.
Po - Атмосферное давление - измеренное на уровне метеостанции атмосферное давление.
Tmin - Минимальная температура - минимум температуры воздуха на высоте 2 м над землей.
Tmax - Максимальная температура - максимум температуры воздуха на высоте 2 м над землей.
R - Количество осадков - Количество выпавших осадков за период времени, мм. При наведении курсора мыши на число - период времени, за который выпало указанное количество осадков.
R24 - Количество осадков - Количество выпавших осадков за 24 часа, мм.
S - Снежный покров - Высота снежного покрова, см. При наведении курсора мыши на число - состояние снежного покрова и степень покрытия местности в баллах.